National Weather Service United States Department of Commerce

Latest Hourly Weather Roundup

TOPSWRTT 000
TTAA00 KICT 031012

Wichita AWIPS Roundup
National Weather Service Wichita KS
500 AM CDT MON OCT 03 2022

....Central Kansas....
  
CITY           SKY/WX    TMP DP  RH WIND       PRES   REMARKS
RUSSELL        CLEAR     53  37  54 E5        30.18S                  
SALINA         CLEAR     55  40  56 SE8       30.20S                  
GREAT BEND     CLEAR     51  38  60 S3        30.20S                  
ELLSWORTH      CLEAR     52  39  62 E3        30.19S                  
LYONS          FAIR      55  38  52 SE6       30.20S                  
MCPHERSON      CLEAR     57  37  48 SE10      30.20S                  
HAYS           CLEAR     53  36  52 S5        30.19S                  

....South Central Kansas....
  
CITY           SKY/WX    TMP DP  RH WIND       PRES   REMARKS
HUTCHINSON     CLEAR     53  38  56 SE5       30.20S                  
NEWTON         CLEAR     56  39  53 SE8       30.22S                  
KINGMAN        CLEAR     52  37  58 CALM      30.21S                  
WICHITA (ICT)  CLEAR     54  39  57 E3        30.19F                  
JABARA ARPT    CLEAR     54  36  50 CALM      30.20F                  
BEECH ARPT     CLEAR     55  37  51 E3        30.20F                  
MCCONNELL AFB  CLEAR     58  37  46 CALM      30.18S                  
BENTON         FAIR      49  36  59 CALM      30.21F                  
EL DORADO      FAIR      57  39  51 SE7       30.21S                  
AUGUSTA        CLEAR     52  34  50 E3        30.21S                  
WELLINGTON     NOT AVBL                                               
WINFIELD       CLEAR     51  38  60 CALM      30.21S                  
 
....Southeast Kansas....
  
CITY           SKY/WX    TMP DP  RH WIND       PRES   REMARKS
EUREKA         CLEAR     52  43  70 NE3       30.23F                  
IOLA           FAIR      48  41  77 CALM      30.24S                  
CHANUTE        CLEAR     58  42  55 E8        30.23S                  
PARSONS        CLEAR     57  41  55 CALM      30.23S                  
COFFEYVILLE    CLEAR     53  42  66 CALM      30.21R                  
INDEPENDENCE   CLEAR     51  42  71 CALM      30.22R                  
FORT SCOTT     CLEAR     49  46  89 CALM      30.24S                  
PITTSBURG      CLEAR     48  43  82 CALM      30.22S                  

....Western Kansas....
  
CITY           SKY/WX    TMP DP  RH WIND       PRES   REMARKS
GOODLAND       PTCLDY    58  30  34 S15       30.12F                  
HILL CITY      CLEAR     54  37  52 S5        30.18F                  
LIBERAL        CLEAR     51  34  52 S9        30.20F                  
GARDEN CITY    CLEAR     48  35  60 S6        30.18F                  
DODGE CITY     CLEAR     49  36  61 S8        30.20S                  
PRATT          CLEAR     54  35  48 S3        30.21S                  
MEDICINE LODGE   N/A     58  36  43 E7        30.19F                  

....Northeast Kansas....
  
CITY           SKY/WX    TMP DP  RH WIND       PRES   REMARKS
CONCORDIA      CLEAR     60  42  51 S12       30.20S                  
TOPEKA         CLEAR     50  45  83 CALM      30.23S                  
MANHATTAN      CLEAR     53  42  66 CALM      30.22S                  
LAWRENCE       CLEAR     44  42  93 CALM      30.25S                  
OLATHE         CLEAR     57  43  59 SE6       30.25S                  
EMPORIA        CLEAR     49  41  74 CALM      30.22F                  

....Oklahoma....
  
CITY           SKY/WX    TMP DP  RH WIND       PRES   REMARKS
GAGE           CLEAR     49  34  56 CALM      30.20S                  
PONCA CITY     CLEAR     50  42  74 CALM      30.20R                  
BARTLESVILLE   CLEAR     43  41  93 CALM      30.22R                  
TULSA          CLEAR     53  46  77 CALM      30.19S                  
OKLAHOMA CITY  CLEAR     55  41  59 S3        30.19R                  

Note: "fair" indicates few or no clouds below 12,000 feet with no
significant weather and/or obstructions to visibility.